Temperature
16 16 16 16 16 16 16 15 15 15 16 16 16 16 16 16 16 16 16 16 16 16 17 17 17 17 17 17 17 16 16 16 16 16 15 15 15 15 15 15 15 14 14
16 16 16 16 16 16 15 15 15 16 16 16 16 16 16 16 16 16 16 16 17 17 17 17 17 17 17 17 17 17 16 16 16 16 16 16 16 15 15 15 15 14 14
16 16 16 16 16 15 15 15 15 16 16 16 16 16 16 16 16 16 16 16 17 17 17 17 17 17 17 17 17 17 17 17 16 16 16 16 16 16 15 15 15 15 14
16 16 16 16 15 15 15 15 15 16 16 16 16 16 16 16 16 16 16 16 17 17 17 17 17 17 17 17 17 17 17 17 17 16 16 16 16 16 15 15 15 15 15
16 16 16 15 15 15 15 15 15 16 16 16 16 16 16 16 16 16 16 17 17 17 17 18 17 17 17 17 17 17 17 17 17 16 16 16 16 16 16 15 15 15 15
16 16 15 15 15 15 15 15 15 16 16 16 16 16 16 16 16 17 17 17 17 17 18 18 17 17 17 17 17 17 17 17 16 16 16 16 16 16 16 15 15 15 15
15 15 15 15 15 15 15 15 15 16 16 16 16 16 16 16 17 17 17 17 17 17 17 17 17 17 17 17 17 17 17 16 16 16 16 16 16 15 15 15 15 15 15
15 15 15 15 15 15 15 15 15 16 16 16 16 16 17 17 17 17 17 17 17 17 17 17 17 17 17 17 17 17 16 16 16 16 15 15 15 15 15 15 15 15 15
15 15 15 15 15 15 15 15 15 15 16 16 16 17 17 17 17 17 17 17 17 17 17 17 17 17 17 17 17 16 16 16 16 15 15 15 15 15 15 15 14 14 14
15 15 15 15 15 15 15 15 15 15 15 16 16 17 17 17 17 17 17 17 17 17 17 17 17 17 17 17 16 16 16 15 15 15 15 15 15 14 14 14 14 14 14
15 15 15 15 15 15 15 15 15 15 15 15 16 16 17 17 17 17 17 17 17 17 17 17 17 17 16 16 16 16 15 15 15 15 15 14 14 14 14 14 14 14 14
15 15 15 15 15 15 15 15 15 15 15 15 16 16 16 17 17 17 17 17 17 17 17 17 16 16 16 16 16 15 15 15 15 14 14 14 14 14 13 13 13 13 13
15 15 15 15 15 15 15 15 15 15 15 15 15 16 16 16 17 17 17 17 17 17 17 16 16 16 16 16 15 15 15 15 14 14 14 14 14 13 13 13 13 13 13
16 15 15 15 15 16 16 15 15 15 15 15 15 16 16 16 16 16 16 16 16 16 16 16 16 16 15 15 15 15 14 14 14 14 14 13 13 13 13 13 12 12 12
16 16 15 15 15 16 16 16 15 15 15 15 15 16 16 16 16 16 16 16 16 16 16 16 15 15 15 15 15 14 14 14 14 14 13 13 13 13 13 12 12 12 12
16 16 15 15 15 16 16 16 16 15 15 15 15 15 15 15 15 15 15 15 15 15 15 15 15 15 15 14 14 14 14 14 13 13 13 13 13 13 12 12 12 12 12
15 16 15 15 15 16 16 16 16 15 15 15 15 15 15 15 15 15 15 15 15 15 15 14 14 14 14 14 14 14 13 13 13 13 13 13 13 13 12 12 12 12 12
15 15 15 15 15 15 16 16 16 15 15 15 15 15 14 14 14 14 14 14 14 14 14 14 14 14 14 14 14 13 13 13 13 13 13 13 13 13 13 12 12 12 12
15 15 15 15 15 15 15 15 15 15 15 15 15 14 14 14 14 14 14 14 14 14 14 14 13 13 13 13 13 13 13 13 13 13 13 13 13 13 12 12 12 12 11
14 14 15 15 15 15 15 15 15 15 15 15 14 14 14 14 14 14 13 13 13 13 13 13 13 13 13 13 13 13 13 14 14 14 13 13 13 12 12 12 12 11 11
14 14 14 14 15 15 14 14 14 15 15 15 14 14 14 14 14 14 13 13 13 13 13 13 13 13 13 13 13 13 14 14 13 13 13 13 12 12 12 11 11 11 11
14 14 14 14 14 14 14 14 14 14 15 15 15 14 14 14 14 13 13 13 13 13 13 13 13 13 13 12 12 12 12 13 12 12 12 12 12 11 11 11 11 11 10
15 15 15 14 14 14 14 14 14 14 14 14 14 14 14 14 14 13 13 13 13 13 13 13 13 13 13 12 12 12 11 11 11 11 11 11 11 11 10 10 10 10 10
15 15 15 15 15 15 14 14 14 14 14 14 14 14 14 14 14 13 13 13 13 13 13 13 13 13 13 12 12 12 11 10 10 10 10 10 10 10 9 9 9 9 9
15 15 15 15 15 15 14 14 14 14 14 14 14 14 14 14 14 13 13 13 13 13 13 13 13 13 12 12 12 11 11 10 10 9 9 9 9 9 9 8 8 8 8
15 15 15 15 15 15 15 14 14 14 14 14 14 14 14 13 13 13 13 13 13 13 13 13 13 12 12 12 11 11 10 10 9 8 8 8 8 8 8 8 7 7 7
Wind_Speed
8 14 22 21 19 18 17 15 15 14 13 13 14 16 18 19 20 20 20 20 20 20 20 20 20 20 19 19 18 18 17 17 17 17 17 16 16 15 15 15 14 13 14
12 18 23 21 20 18 17 16 15 14 13 13 15 17 19 20 21 21 20 20 20 20 20 20 19 19 18 17 16 16 16 16 15 15 15 15 15 15 15 14 13 13 14
15 18 21 21 20 18 17 16 15 14 14 14 15 18 20 20 21 21 20 20 20 19 19 19 18 17 16 14 14 13 13 13 13 13 12 11 12 14 14 13 14 14 14
15 17 19 21 20 19 17 16 16 15 15 15 16 18 19 20 20 20 20 19 19 19 18 18 17 15 14 13 13 12 12 12 12 12 12 11 11 13 13 13 13 13 13
12 16 19 21 20 19 17 17 16 15 15 15 16 17 18 19 19 19 19 18 18 18 17 16 15 14 13 13 13 13 12 12 12 11 11 10 10 12 12 12 12 12 12
10 15 19 21 19 18 17 17 17 16 16 16 16 17 18 18 18 18 18 17 17 16 16 15 14 13 12 12 12 12 12 11 10 10 9 8 8 10 10 11 11 11 11
11 14 19 20 19 18 17 17 17 16 16 16 17 17 17 17 18 17 16 16 15 15 14 14 13 12 12 12 12 11 10 9 9 7 6 6 6 8 8 9 9 9 10
12 12 17 20 19 17 16 16 16 17 16 16 16 17 17 16 16 16 15 14 14 13 13 12 11 10 10 10 10 9 8 7 6 5 4 3 4 6 6 7 7 8 8
11 10 12 16 17 16 16 16 16 17 16 16 15 16 16 16 15 15 14 13 12 11 11 10 9 8 8 8 8 7 6 5 4 2 1 1 1 3 4 4 4 5 6
10 9 9 13 14 14 14 15 16 17 16 15 15 15 15 15 14 13 12 11 10 9 8 7 7 6 6 6 6 5 5 4 2 1 1 2 2 1 1 1 1 2 3
11 9 9 10 12 13 13 14 15 16 16 15 14 15 14 12 11 10 10 9 8 8 6 5 4 4 5 5 5 4 3 2 0 2 3 4 4 3 2 2 1 1 1
13 11 10 10 10 12 11 12 12 12 13 13 13 13 11 10 9 8 8 8 7 6 4 3 3 3 4 4 4 3 2 1 2 3 5 5 6 5 5 4 4 4 3
11 11 11 10 10 10 8 10 9 9 10 11 12 12 10 9 7 6 6 5 5 4 3 2 2 2 2 3 3 3 3 3 4 5 6 7 7 7 7 7 6 6 6
10 11 10 10 10 10 10 9 9 9 9 9 11 12 10 7 5 5 5 4 4 3 2 1 1 1 2 2 3 4 4 4 6 7 8 9 9 9 9 9 9 8 8
13 12 11 10 10 9 8 7 8 9 9 11 11 12 11 7 5 5 5 5 4 4 4 3 2 1 2 3 3 3 4 5 6 7 9 10 10 10 11 11 11 10 10
15 13 11 11 10 9 8 7 7 9 10 11 11 13 13 10 8 6 5 5 6 6 5 4 3 2 2 2 3 3 4 5 6 8 9 10 10 11 11 12 12 12 11
13 12 12 11 11 11 10 9 8 9 10 9 10 13 14 12 10 8 5 4 6 7 6 4 3 2 2 2 2 3 4 5 6 8 9 10 10 11 11 11 12 12 10
11 12 13 11 11 10 9 8 7 9 9 9 10 12 14 14 13 9 5 5 8 7 5 3 2 2 2 2 2 3 3 4 6 8 8 8 8 9 9 10 10 9 7
13 13 13 12 12 11 9 7 6 7 8 8 9 10 12 14 14 10 6 6 8 6 4 3 2 2 2 2 3 3 3 4 4 6 5 7 7 7 7 7 5 4 3
10 12 13 13 12 10 7 5 4 5 5 6 7 9 12 12 13 11 7 7 7 4 3 3 2 2 2 1 2 3 4 4 3 3 4 5 5 5 4 4 3 2 2
8 10 12 12 12 10 7 7 6 6 6 5 5 8 11 11 12 10 6 5 5 5 4 4 3 2 1 0 1 3 3 3 2 2 2 3 4 5 4 3 3 3 4
9 10 11 12 11 11 9 7 5 4 4 4 4 6 8 10 11 10 7 5 5 4 4 4 3 2 1 1 1 1 4 4 3 3 3 4 4 5 6 7 7 6 6
8 10 9 10 11 12 10 6 4 3 2 2 4 4 5 8 9 9 8 6 5 5 5 4 4 4 2 1 1 2 1 3 3 3 3 4 4 4 4 6 7 7 7
7 7 8 9 9 10 10 9 9 8 7 7 6 5 5 6 7 8 8 7 5 4 5 4 4 3 3 2 1 1 2 2 2 3 2 2 4 5 5 4 6 7 7
5 5 5 6 7 7 8 10 10 8 6 5 5 6 5 3 5 6 7 6 5 4 5 4 4 3 3 3 2 1 2 2 3 4 4 2 2 3 3 4 4 6 7
2 3 3 4 4 5 7 8 9 10 8 7 7 7 5 4 3 5 6 6 5 5 5 4 4 4 3 2 2 2 2 2 3 4 5 4 2 0 2 3 3 4 6
Wind_Direction
159 156 153 148 143 139 136 133 126 119 116 115 118 123 125 125 122 120 117 114 112 110 109 109 107 104 101 96 92 88 84 80 78 77 75 74 74 72 69 67 65 64 68
148 154 152 149 144 141 139 135 128 121 118 116 118 122 122 122 122 121 118 116 113 112 112 111 108 105 101 97 93 91 88 85 81 76 73 71 72 71 68 65 66 66 67
145 151 150 148 145 142 140 137 131 126 122 118 118 121 120 120 121 120 118 116 115 115 114 111 107 104 100 98 96 96 94 89 83 77 71 68 72 73 71 67 66 64 64
145 148 149 147 145 143 142 139 134 129 126 121 120 120 120 119 119 118 116 116 115 115 114 111 107 102 98 96 97 100 100 96 88 80 70 64 68 72 70 68 65 63 61
140 144 149 147 145 145 145 142 137 133 130 126 124 122 120 119 119 117 117 116 116 115 114 111 107 102 98 95 99 102 103 101 93 85 76 67 65 71 69 67 64 62 60
137 143 149 146 146 147 148 145 141 137 135 131 128 126 123 122 121 119 119 118 118 118 117 113 108 103 99 97 100 104 105 102 97 89 80 71 67 73 70 66 64 61 59
141 144 149 147 147 149 150 148 144 140 139 136 132 129 128 127 125 124 123 123 121 120 119 116 110 103 99 98 100 103 106 104 100 92 81 71 71 76 73 68 64 62 59
145 145 151 149 149 150 152 151 149 145 144 141 137 134 133 132 132 130 129 127 126 124 122 118 111 104 98 98 99 99 104 108 107 97 83 68 70 76 76 72 66 62 58
146 145 147 149 149 151 153 154 153 150 149 147 143 139 137 137 137 136 134 132 131 128 124 119 112 102 95 92 94 96 101 112 117 124 107 57 54 70 78 76 66 59 57
151 149 145 146 147 149 153 156 155 152 152 150 146 141 140 141 141 140 138 137 135 131 127 120 112 99 86 81 84 90 98 111 119 163 246 264 287 310 53 76 61 52 51
163 156 151 148 147 149 153 158 156 153 154 151 147 145 142 142 143 142 143 142 140 138 135 127 113 90 73 63 67 79 93 97 133 263 263 266 274 276 276 270 271 280 342
175 170 161 157 153 151 154 153 151 151 151 148 148 148 146 145 145 145 150 152 152 150 145 130 101 72 56 41 35 43 47 360 306 282 276 277 275 274 274 267 263 260 260
180 178 170 164 159 156 151 152 150 149 149 150 155 155 152 148 149 150 156 162 163 160 148 117 76 55 33 12 356 345 327 305 290 286 286 285 280 274 274 271 264 259 257
184 186 178 169 165 162 156 157 158 158 160 161 166 166 161 158 162 168 173 178 179 180 179 181 177 324 328 319 312 306 301 292 285 284 286 288 284 278 276 277 272 266 260
188 189 187 177 172 166 159 162 166 170 173 173 174 177 177 174 178 182 187 191 200 203 204 207 221 260 289 300 296 280 281 284 285 284 286 290 287 281 277 277 276 272 267
185 186 191 185 179 170 169 168 171 177 176 175 180 186 188 189 187 185 188 197 208 211 214 211 218 241 271 285 290 280 274 280 282 283 283 287 286 282 277 276 276 276 275
186 183 192 195 184 180 179 175 173 178 179 181 188 191 193 195 193 189 186 199 212 211 208 210 222 227 250 259 271 276 273 275 277 280 281 282 284 284 279 276 278 280 281
187 186 192 199 193 190 184 179 177 178 183 189 190 193 197 198 196 188 187 202 207 196 187 181 184 200 231 245 265 278 276 279 279 281 284 285 286 286 287 285 283 281 283
191 191 190 191 192 193 189 181 179 178 184 189 190 194 199 199 196 189 191 197 189 177 175 177 177 183 212 247 268 278 280 271 275 285 290 295 292 289 290 296 297 294 295
195 198 196 192 191 188 186 182 177 182 187 186 191 197 199 197 192 187 187 184 173 162 168 172 175 176 196 241 284 290 282 278 286 297 301 310 312 309 305 303 315 338 9
196 200 199 197 192 184 186 190 191 199 197 190 191 198 201 196 189 184 179 170 167 171 171 167 157 156 165 79 351 323 312 307 326 340 351 358 360 6 21 20 29 54 57
197 200 197 198 194 193 196 193 187 180 190 191 179 187 199 196 188 184 173 170 165 158 150 149 140 137 134 104 120 353 331 336 354 17 24 30 24 34 41 45 55 59 60
201 198 199 198 196 198 194 176 154 140 123 172 192 192 198 193 184 176 170 160 159 159 160 156 152 156 175 181 173 178 221 276 309 331 30 36 34 35 33 46 50 53 58
218 202 195 196 199 196 188 186 181 185 193 200 196 185 177 173 168 166 159 154 153 151 152 157 156 157 158 190 212 218 214 210 258 307 328 29 39 37 28 36 42 47 52
210 201 196 190 191 189 187 190 191 196 197 179 168 166 165 156 147 149 146 143 144 146 148 145 146 147 155 174 186 196 223 223 222 240 277 302 11 31 31 34 41 43 44
170 164 167 176 186 181 184 191 191 194 183 171 174 174 169 158 146 147 143 144 142 143 144 141 139 140 149 162 180 192 202 214 219 227 251 263 259 220 53 39 38 41 46
Height
1507 1511 1515 1518 1520 1522 1523 1525 1526 1527 1528 1529 1530 1532 1534 1537 1539 1541 1543 1545 1547 1548 1549 1550 1551 1551 1552 1552 1553 1553 1553 1554 1554 1554 1554 1554 1554 1554 1554 1554 1554 1553 1553
1505 1511 1515 1517 1520 1522 1524 1525 1527 1528 1529 1530 1532 1533 1535 1538 1540 1542 1545 1546 1548 1549 1551 1552 1553 1553 1554 1555 1555 1556 1556 1556 1556 1556 1557 1556 1556 1556 1556 1556 1556 1556 1555
1505 1510 1514 1517 1520 1522 1524 1526 1527 1529 1530 1532 1533 1535 1537 1539 1541 1544 1546 1548 1549 1551 1552 1553 1554 1555 1556 1557 1558 1558 1558 1558 1559 1559 1559 1559 1559 1559 1558 1558 1558 1558 1557
1506 1510 1514 1517 1520 1522 1524 1526 1528 1530 1531 1533 1535 1537 1538 1540 1543 1545 1547 1549 1551 1552 1554 1555 1556 1557 1558 1559 1560 1560 1560 1561 1561 1561 1561 1561 1561 1561 1560 1560 1560 1559 1559
1507 1510 1514 1518 1520 1522 1525 1527 1529 1530 1532 1534 1535 1538 1540 1542 1544 1546 1548 1550 1552 1554 1555 1557 1558 1559 1560 1561 1562 1562 1562 1563 1563 1563 1563 1563 1563 1562 1562 1562 1561 1561 1560
1507 1511 1515 1518 1520 1523 1525 1527 1529 1531 1533 1535 1537 1539 1541 1543 1545 1547 1550 1552 1553 1555 1557 1558 1560 1561 1562 1563 1563 1564 1564 1564 1565 1565 1565 1564 1564 1564 1564 1563 1563 1562 1561
1508 1512 1515 1518 1521 1523 1526 1528 1530 1532 1534 1536 1538 1540 1542 1544 1546 1549 1551 1553 1555 1556 1558 1560 1561 1562 1563 1564 1565 1565 1566 1566 1566 1566 1566 1566 1565 1565 1565 1564 1564 1563 1562
1509 1512 1515 1518 1521 1524 1526 1528 1531 1533 1535 1537 1539 1541 1543 1545 1548 1550 1552 1554 1556 1558 1559 1561 1562 1563 1564 1565 1566 1566 1567 1567 1567 1567 1567 1567 1566 1566 1565 1565 1564 1564 1563
1509 1513 1516 1518 1521 1524 1526 1529 1531 1534 1536 1538 1540 1542 1544 1546 1549 1551 1553 1555 1557 1559 1560 1562 1563 1564 1565 1565 1566 1567 1567 1567 1567 1567 1567 1567 1567 1566 1566 1565 1565 1564 1563
1509 1512 1516 1518 1521 1524 1526 1529 1532 1534 1536 1538 1541 1543 1545 1547 1550 1552 1554 1556 1558 1559 1561 1562 1563 1564 1565 1566 1566 1567 1567 1567 1568 1568 1567 1567 1567 1566 1566 1565 1564 1564 1563
1509 1512 1515 1518 1521 1524 1526 1529 1532 1535 1537 1539 1541 1543 1545 1548 1550 1552 1554 1556 1558 1560 1561 1562 1563 1564 1565 1566 1566 1567 1567 1567 1567 1567 1567 1567 1566 1566 1565 1565 1564 1563 1562
1507 1511 1514 1517 1520 1523 1526 1529 1532 1534 1537 1539 1541 1543 1546 1548 1550 1552 1554 1556 1558 1559 1561 1562 1563 1564 1565 1565 1566 1566 1566 1567 1567 1567 1566 1566 1565 1565 1564 1564 1563 1562 1562
1505 1509 1513 1516 1519 1522 1525 1528 1531 1534 1536 1538 1541 1543 1545 1547 1550 1552 1554 1555 1557 1559 1560 1561 1562 1563 1564 1564 1565 1565 1566 1566 1566 1565 1565 1565 1564 1564 1563 1563 1562 1561 1560
1503 1507 1511 1515 1518 1521 1524 1527 1530 1533 1535 1538 1540 1543 1545 1547 1549 1551 1553 1555 1556 1558 1559 1560 1561 1562 1563 1564 1564 1564 1565 1565 1564 1564 1564 1563 1563 1562 1562 1561 1560 1560 1559
1500 1505 1509 1513 1516 1519 1523 1526 1529 1532 1534 1537 1539 1542 1544 1547 1548 1550 1552 1554 1555 1557 1558 1559 1560 1561 1562 1562 1563 1563 1563 1563 1563 1562 1562 1561 1560 1560 1559 1559 1558 1558 1557
1496 1501 1507 1511 1515 1517 1520 1524 1527 1530 1533 1535 1538 1541 1543 1546 1547 1549 1551 1552 1554 1555 1557 1558 1558 1559 1560 1561 1561 1561 1561 1561 1560 1560 1559 1558 1558 1557 1556 1556 1555 1555 1555
1494 1499 1504 1508 1513 1516 1518 1522 1525 1528 1531 1534 1537 1539 1541 1544 1546 1548 1549 1551 1552 1553 1555 1556 1557 1557 1558 1559 1559 1559 1558 1558 1557 1557 1556 1555 1554 1554 1553 1552 1552 1552 1552
1494 1498 1502 1506 1510 1513 1516 1519 1523 1526 1529 1532 1535 1537 1539 1542 1544 1546 1547 1549 1550 1551 1553 1554 1554 1555 1556 1556 1556 1556 1556 1555 1554 1553 1552 1551 1551 1550 1549 1549 1548 1548 1548
1491 1495 1499 1503 1506 1510 1514 1517 1520 1523 1526 1529 1532 1535 1537 1539 1541 1543 1545 1546 1548 1549 1550 1551 1552 1553 1553 1553 1553 1553 1552 1552 1551 1550 1549 1547 1546 1546 1545 1545 1545 1545 1545
1489 1493 1497 1500 1503 1507 1511 1514 1517 1520 1523 1526 1529 1531 1534 1537 1539 1540 1542 1544 1545 1546 1548 1549 1550 1550 1550 1550 1550 1549 1549 1548 1547 1546 1545 1544 1543 1542 1542 1542 1542 1542 1542
1486 1490 1494 1497 1500 1504 1507 1510 1513 1516 1519 1522 1525 1528 1531 1533 1535 1537 1539 1541 1542 1544 1545 1546 1547 1547 1547 1547 1547 1546 1545 1544 1543 1542 1541 1541 1540 1540 1539 1539 1539 1539 1539
1483 1487 1490 1494 1497 1500 1503 1506 1510 1513 1516 1519 1522 1524 1527 1530 1532 1534 1536 1538 1539 1540 1542 1543 1544 1544 1544 1544 1544 1542 1541 1541 1539 1539 1538 1538 1538 1537 1537 1537 1537 1536 1536
1480 1484 1487 1490 1493 1496 1499 1502 1506 1509 1512 1515 1517 1520 1523 1525 1528 1530 1532 1534 1536 1537 1538 1539 1540 1541 1541 1541 1541 1541 1540 1538 1537 1536 1535 1535 1534 1534 1534 1534 1534 1533 1533
1478 1481 1484 1487 1489 1492 1496 1498 1501 1504 1507 1510 1513 1515 1519 1522 1524 1526 1528 1530 1532 1533 1535 1536 1537 1537 1537 1537 1537 1537 1537 1536 1536 1533 1532 1532 1531 1531 1531 1530 1530 1530 1529
1475 1478 1481 1484 1486 1489 1492 1495 1498 1501 1504 1507 1509 1512 1515 1517 1520 1522 1524 1526 1528 1529 1531 1532 1533 1533 1533 1533 1533 1533 1533 1532 1531 1531 1528 1528 1527 1527 1526 1526 1526 1526 1526
1472 1475 1478 1481 1484 1486 1489 1492 1495 1497 1500 1502 1505 1507 1510 1513 1516 1518 1520 1522 1524 1525 1527 1528 1528 1529 1529 1528 1528 1528 1528 1527 1527 1526 1524 1523 1522 1522 1522 1521 1521 1522 1521